Location: Newark
(53.5850°N, 0.9260°W)
Time: 10:27:44
(UTC+00:00)

Envisat - Visible Passes

Search period start: 30 September 2020 00:00
Search period end: 10 October 2020 00:00
Orbit: 764 x 766 km, 98.1° (Epoch: 29 September)

Date Brightness Start Highest point End Pass type
(mag) Time Alt. Az. Time Alt. Az. Time Alt. Az.
30 Sep 5.4 05:22:45 10° NNE 05:27:10 29° E 05:31:33 10° SSE visible
30 Sep 6.0 18:24:05 10° SW 18:27:58 22° W 18:31:52 10° NW visible
01 Oct 6.2 04:46:55 10° NE 04:49:55 15° E 04:52:53 10° ESE visible
02 Oct 6.4 18:51:12 10° WSW 18:53:46 14° W 18:56:21 10° NW visible
03 Oct 5.7 05:11:35 10° NE 05:15:42 24° E 05:19:46 10° SE visible
03 Oct 5.6 18:12:15 10° SSW 18:16:28 26° W 18:20:44 10° NW visible
04 Oct 6.4 04:36:12 10° ENE 04:38:22 13° E 04:40:31 10° ESE visible
05 Oct 4.9 05:36:38 10° NNE 05:41:22 37° E 05:46:03 10° SSE visible
05 Oct 6.2 18:38:59 10° SW 18:42:14 17° W 18:45:30 10° NW visible
06 Oct 6.0 05:00:28 10° NE 05:04:12 20° E 05:07:53 10° SE visible
06 Oct 5.2 18:00:30 10° SSW 18:05:01 31° W 18:09:32 10° NNW visible
07 Oct 6.8 04:26:34 10° ENE 04:26:48 10° E 04:27:02 10° E visible
07 Oct 6.8 19:07:24 10° W 19:08:06 10° W 19:08:49 10° WNW visible
08 Oct 5.2 05:25:24 10° NNE 05:29:54 31° E 05:34:24 10° SSE visible
08 Oct 6.0 18:26:59 10° SW 18:30:43 20° W 18:34:29 10° NW visible
09 Oct 6.2 04:49:27 10° NE 04:52:40 17° E 04:55:52 10° SE visible
09 Oct 4.8 17:48:50 10° SSW 17:53:33 38° W 17:58:18 10° NNW visible
